Home > Weather > Gunsan > Past weeks

Flag for South Korea Weather for the Past 2 Weeks in Gunsan, South Korea

Now
38 °F

Fog.


Feels Like: 33 °F
Forecast: 36 / 55 °F
Wind: 6 mph from East

Location: Kunsan Ab

Current Time: Feb 10, 2016 at 10:10:54 PM

Latest Report: Feb 10, 2016 at 8:58 PM


Visibility: 6 mi

Pressure: 30.27 "Hg

Humidity: 95%

Dew point: 36 °F

Location of GunsanLocation

Historic Weather in Gunsan — Graph

°F

Gunsan Temperature Yesterday

Maximum temperature yesterday: 43 °F (at 12:58 PM)
Minimum temperature yesterday: 31 °F (at 6:58 AM)
Average temperature yesterday: 37 °F

High & Low Weather Summary for the Past Weeks

 TemperatureHumidityPressure
High51 °F (Feb 10, 2:58 PM)100% (Jan 26, 8:58 PM)30.47 "Hg (Jan 26, 8:58 PM)
Low20 °F (Feb 2, 7:58 AM)20% (Feb 10, 2:58 PM)29.96 "Hg (Feb 8, 5:58 PM)
Average33 °F80%30.30 "Hg
* Reported Jan 26 8:58 PM — Feb 10 8:58 PM, Gunsan, Weather by CustomWeather, © 2016

Note: Actual official high and low records may vary slightly from our data, if they occured in-between our weather recording intervals... More about our weather records

Advertising

Gunsan Weather History for the Previous 24 Hours

 ConditionsComfort  
Time TempWeatherWind HumidityBarometerVisibility
8:58 PM
Wed, Feb 10
38 °FFog.6 mph95%30.27 "Hg6 mi
7:58 PM39 °FClear.No wind70%30.26 "Hg10 mi
6:58 PM39 °FClear.No wind73%30.26 "Hg10 mi
5:58 PM42 °FSunny.5 mph75%30.26 "Hg9 mi
4:58 PM47 °FSunny.5 mph45%30.25 "Hg10 mi
3:58 PM51 °FSunny.6 mph39%30.26 "Hg10 mi
2:58 PM51 °FSunny.2 mph20%30.26 "Hg10 mi
1:58 PM50 °FSunny.5 mph23%30.27 "Hg8 mi
12:58 PM48 °FSunny.6 mph24%30.29 "Hg10 mi
11:58 AM44 °FSunny.7 mph49%30.33 "Hg9 mi
10:58 AM41 °FSunny.5 mph75%30.33 "Hg8 mi
9:58 AM37 °FSunny.3 mph86%30.33 "Hg8 mi
8:58 AM33 °FFog.No wind84%30.33 "Hg5 mi
7:58 AM25 °FIce fog.6 mph100%30.30 "Hg4 mi
7:02 AM25 °FIce fog.3 mph100%30.29 "Hg5 mi
5:58 AM34 °FClear.5 mph93%30.27 "Hg10 mi
4:58 AM34 °FClear.5 mph93%30.26 "Hg10 mi
3:58 AM34 °FClear.5 mph93%30.26 "Hg10 mi
2:58 AM34 °FClear.5 mph93%30.27 "Hg10 mi
1:58 AM34 °FClear.5 mph93%30.27 "Hg10 mi
12:58 AM34 °FClear.5 mph93%30.27 "Hg10 mi
11:58 PM
Tue, Feb 9
34 °FClear.5 mph93%30.27 "Hg10 mi
10:58 PM34 °FClear.5 mph93%30.27 "Hg10 mi
Weather by CustomWeather, © 2016

See weather overviewHow to use our weather pages